Flag for U.S.A. Weather past 2 weeks in Hudson, Wisconsin, U.S.A.

Now
82 °F

More clouds than sun.


Feels Like: 87 °F
Forecast: 61 / 80 °F
Wind: 14 mph from Southwest

Location: St. Paul Downtown Holman Field

Current Time: Jul 28, 2015 at 7:41:37 PM

Latest Report: Jul 28, 2015 at 6:53 PM


Visibility: 10 mi

Pressure: 29.79 "Hg

Humidity: 72%

Dew point: 72 °F

Location of HudsonLocation

Historic Weather in Hudson — Graph

°F

Hudson temperature yesterday

Maximum temperature yesterday: 85 °F (at 3:53 PM)
Minimum temperature yesterday: 70 °F (at 5:53 AM)
Average temperature yesterday: 78 °F

Past Weeks' High & Low Weather Summary

 TemperatureHumidityPressure
High88 °F (Jul 17, 4:53 PM)100% (Jul 17, 4:53 AM)30.00 "Hg (Jul 17, 4:53 AM)
Low60 °F (Jul 21, 5:53 AM)41% (Jul 19, 2:53 PM)29.57 "Hg (Jul 13, 6:53 PM)
Average75 °F71%29.85 "Hg
* Reported Jul 13 5:53 PM — Jul 28 5:53 PM, Hudson, Weather by CustomWeather, © 2015

Note: Actual official high and low records may vary slightly from our data, if they occured in-between our weather recording intervals... More about our weather records

Advertising

Hudson weather history for previous 24 hours

 ConditionsComfort  
Time TempWeatherWind HumidityBarometerVisibility
5:53 PM
Tue, Jul 28
82 °FOvercast.9 mph72%29.79 "Hg10 mi
4:53 PM83 °FOvercast.6 mph68%29.78 "Hg10 mi
3:53 PM82 °FOvercast.12 mph70%29.78 "Hg10 mi
2:53 PM83 °FPassing clouds.10 mph68%29.79 "Hg10 mi
1:53 PM82 °FScattered clouds.14 mph72%29.80 "Hg10 mi
12:53 PM79 °FPassing clouds.13 mph74%29.81 "Hg10 mi
11:53 AM76 °FSunny.16 mph82%29.81 "Hg10 mi
10:53 AM76 °FSunny.15 mph82%29.80 "Hg10 mi
9:53 AM73 °FPassing clouds.15 mph94%29.78 "Hg10 mi
8:53 AM71 °FLight rain. Broken clouds.14 mph93%29.76 "Hg10 mi
8:00 AM70 °FThundershowers. Fog.5 mph97%29.83 "Hg4 mi
6:59 AM73 °FStrong thunderstorms. Fog.15 mph94%29.90 "Hg2 mi
5:53 AM74 °FPassing clouds.13 mph88%29.80 "Hg10 mi
4:53 AM74 °FClear.13 mph88%29.78 "Hg10 mi
3:53 AM74 °FClear.12 mph88%29.81 "Hg10 mi
2:53 AM74 °FClear.13 mph91%29.84 "Hg10 mi
1:53 AM75 °FClear.13 mph88%29.85 "Hg10 mi
12:53 AM76 °FClear.12 mph85%29.88 "Hg10 mi
11:53 PM
Mon, Jul 27
76 °FClear.9 mph88%29.89 "Hg10 mi
10:53 PM77 °FClear.7 mph85%29.89 "Hg10 mi
9:53 PM79 °FPassing clouds.8 mph79%29.89 "Hg10 mi
8:53 PM80 °FSunny.10 mph76%29.87 "Hg10 mi
7:53 PM81 °FPassing clouds.10 mph77%29.87 "Hg10 mi
Weather by CustomWeather, © 2015

See weather overviewHow to use our weather pages